PBO Station Position Time Series. Reference Frame : NAM14
Format Version,1.1.0
4-character ID,DRAO
Station name,Dominion_Radio_A
Begin Date, 1996-01-01
End Date, 2019-10-07
Release Date, 2019-10-08
Reference position, 49.3226184593 North Latitude, -119.6249832435 East Longitude, 541.87878 meters elevation,
Date, North (mm), East (mm), Vertical (mm), North Std. Deviation (mm), East Std. Deviation (mm),              Vertical Std. Deviation (mm), Quality,
1996-01-01,0.00, 0.00, 0.00, 3.02, 2.23, 9.53, repro,
1996-01-02,0.37, -4.99, -4.18, 4.19, 3.18, 13.51, repro,
1996-01-03,-0.02, 3.27, 6.72, 3.64, 2.74, 11.44, repro,
1996-01-04,0.28, -0.41, 0.14, 2.96, 2.19, 9.31, repro,
1996-01-05,0.51, 0.96, -2.93, 3.15, 2.33, 9.73, repro,
1996-01-06,-2.35, 2.14, -3.68, 2.99, 2.19, 9.53, repro,
1996-01-07,-4.59, 1.07, -6.58, 2.90, 2.08, 9.07, repro,
1996-01-08,0.58, 1.94, 19.49, 3.21, 2.47, 10.75, repro,
1996-01-09,-2.70, -0.34, -1.79, 3.03, 2.16, 9.50, repro,
1996-01-10,-2.32, -2.27, 13.22, 2.97, 2.21, 9.59, repro,
1996-01-11,-3.05, -0.15, 9.63, 2.93, 2.17, 9.24, repro,
1996-01-12,-3.32, 0.37, 14.03, 3.11, 2.33, 9.84, repro,
1996-01-13,-0.85, -0.37, 13.51, 2.88, 2.14, 9.05, repro,
1996-01-14,-0.39, -1.08, 5.32, 3.02, 2.25, 9.49, repro,
1996-01-15,-0.47, 0.73, 1.36, 2.95, 2.22, 9.36, repro,
1996-01-16,1.61, -0.73, 15.54, 3.21, 2.41, 10.59, repro,
1996-01-17,-0.58, -0.28, 10.77, 3.06, 2.38, 10.01, repro,
1996-01-18,0.43, -1.79, 11.40, 2.83, 2.16, 9.03, repro,
1996-01-19,0.88, -0.43, 20.50, 3.42, 2.79, 11.69, repro,
1996-01-20,1.20, 0.62, 4.01, 3.91, 2.79, 12.18, repro,
1996-01-21,-1.16, 6.58, 18.31, 3.81, 2.79, 11.84, repro,
1996-01-22,0.79, 3.66, 3.91, 3.70, 2.76, 11.96, repro,
1996-01-23,-1.21, 0.72, 3.36, 3.85, 2.81, 12.38, repro,
1996-01-24,12.33, -1.42, -2.43, 3.90, 2.80, 12.40, repro,
1996-01-25,10.10, -0.75, 3.32, 3.91, 2.92, 12.62, repro,
1996-01-26,8.29, 4.65, -0.65, 4.00, 2.95, 12.55, repro,
1996-01-27,11.15, 7.38, -3.91, 4.25, 3.18, 13.20, repro,
1996-01-28,7.48, 7.16, 6.80, 4.26, 3.07, 13.39, repro,
1996-01-29,5.60, 5.33, -0.90, 2.95, 2.25, 9.33, repro,
1996-01-30,3.45, 4.40, -9.04, 4.51, 3.37, 14.28, repro,
1996-01-31,4.14, 4.50, 1.89, 3.08, 2.29, 9.52, repro,
1996-02-01,4.18, 3.31, -3.72, 2.98, 2.25, 9.50, repro,
1996-02-02,3.19, 3.75, 2.70, 3.02, 2.24, 9.38, repro,
1996-02-03,3.23, 3.40, 0.14, 2.89, 2.19, 9.09, repro,
1996-02-04,5.01, 2.76, 0.05, 2.89, 2.18, 9.13, repro,
1996-02-05,-0.24, 6.59, 3.74, 2.84, 2.15, 8.81, repro,
1996-02-06,-3.85, 4.29, 5.97, 2.88, 2.17, 9.19, repro,
1996-02-07,1.23, 0.82, 10.28, 2.86, 2.15, 8.97, repro,
1996-02-08,-1.15, 1.25, 10.71, 2.84, 2.12, 8.57, repro,
1996-02-09,3.93, -0.02, 12.55, 5.91, 4.74, 19.23, repro,
1996-02-10,-1.81, -0.29, -1.47, 2.85, 2.11, 8.77, repro,
1996-02-11,0.46, 2.08, 4.57, 3.43, 2.64, 11.10, repro,
1996-02-12,2.41, 2.84, -2.57, 3.74, 2.80, 11.78, repro,
1996-02-13,-0.61, 1.37, 3.59, 3.70, 2.74, 11.86, repro,
1996-02-14,0.42, 0.39, 6.07, 3.90, 2.95, 12.46, repro,
1996-02-15,1.31, 0.45, -9.92, 3.99, 3.11, 12.49, repro,
1996-02-16,-1.20, 0.65, 12.33, 4.11, 3.15, 12.76, repro,
1996-02-17,0.88, 1.07, 10.11, 3.68, 2.69, 11.59, repro,
1996-02-18,-0.43, 4.64, 21.06, 3.86, 2.93, 11.98, repro,
1996-02-19,-0.29, -0.90, 29.29, 3.72, 2.72, 11.64, repro,
1996-02-20,-2.83, 0.60, 32.82, 3.80, 2.89, 11.98, repro,
1996-02-21,-1.07, 0.61, 23.97, 3.77, 2.76, 11.59, repro,
1996-02-22,-1.67, -0.56, 17.37, 3.71, 2.75, 11.92, repro,
1996-02-23,-3.07, 1.35, 13.52, 3.64, 2.59, 11.07, repro,
1996-02-24,-1.38, -0.54, 11.10, 3.48, 2.66, 11.37, repro,
1996-02-25,3.39, 0.14, 7.63, 3.44, 2.66, 11.58, repro,
1996-02-26,1.66, 0.04, 8.21, 3.44, 2.63, 11.25, repro,
1996-02-27,0.85, 0.23, 3.41, 3.50, 2.66, 11.38, repro,
1996-02-28,-1.33, 0.87, 5.36, 3.61, 2.80, 11.85, repro,
1996-02-29,-0.61, 0.46, 9.01, 3.47, 2.67, 11.41, repro,
1996-03-01,-2.05, 0.00, 8.13, 3.46, 2.64, 11.22, repro,
1996-03-02,-1.23, 0.73, 16.92, 3.54, 2.78, 11.61, repro,
1996-03-03,-0.75, 0.28, 9.68, 3.48, 2.58, 11.16, repro,
1996-03-04,0.15, 3.68, 19.99, 3.57, 2.70, 11.43, repro,
1996-03-05,-0.45, -0.72, 2.84, 2.96, 2.10, 9.18, repro,
1996-03-06,0.10, 0.61, -1.01, 3.15, 2.26, 9.89, repro,
1996-03-07,-1.83, -0.31, 0.91, 2.79, 2.02, 8.44, repro,
1996-03-08,-3.84, -0.97, 0.15, 3.34, 2.37, 10.19, repro,
1996-03-09,-1.55, 1.24, 9.25, 3.61, 2.66, 11.68, repro,
1996-03-10,-0.57, 1.78, 3.78, 3.71, 2.74, 12.13, repro,
1996-03-11,-3.06, 0.12, 4.35, 2.94, 2.14, 9.12, repro,
1996-03-12,-1.86, -1.98, 4.05, 2.80, 2.02, 8.38, repro,
1996-03-13,-1.47, -2.62, 0.61, 3.08, 2.18, 9.36, repro,
1996-03-14,0.04, -2.26, 4.25, 2.93, 2.12, 8.83, repro,
1996-03-15,-2.10, 0.00, 17.54, 3.54, 2.54, 11.30, repro,
1996-03-16,-3.68, -1.99, 5.76, 3.53, 2.61, 11.44, repro,
1996-03-17,-2.47, -1.34, 3.45, 3.53, 2.67, 11.40, repro,
1996-03-18,-0.38, -0.12, -0.32, 3.50, 2.59, 11.23, repro,
1996-03-19,-4.06, -0.01, 7.39, 3.35, 2.39, 10.16, repro,
1996-03-20,-2.43, -2.01, 2.15, 3.42, 2.44, 10.73, repro,
1996-03-21,-1.18, -1.37, 7.10, 3.96, 2.74, 12.12, repro,
1996-03-22,-2.44, -2.08, -3.16, 3.86, 2.79, 12.03, repro,
1996-03-23,1.38, 0.26, 1.66, 4.03, 2.89, 12.46, repro,
1996-03-24,2.22, -1.79, 7.28, 3.77, 2.66, 10.88, repro,
1996-03-25,0.18, -0.26, 4.30, 3.66, 2.59, 10.92, repro,
1996-03-26,-0.45, -2.17, 4.02, 3.68, 2.49, 10.95, repro,
1996-03-27,-1.56, -1.39, 5.00, 2.87, 2.08, 8.73, repro,
1996-03-28,-1.40, -0.86, 8.57, 2.82, 2.03, 8.35, repro,
1996-03-29,-1.18, -2.35, 0.58, 2.83, 2.04, 8.46, repro,
1996-03-30,-2.22, -0.67, 6.66, 3.06, 2.21, 9.03, repro,
1996-03-31,-1.36, 0.51, 7.69, 2.96, 2.15, 8.71, repro,
1996-04-01,-1.99, 0.60, 15.48, 3.03, 2.18, 8.89, repro,
1996-04-02,-4.68, -0.87, 15.99, 3.03, 2.27, 8.73, repro,
1996-04-03,-2.07, -1.09, 9.57, 2.95, 2.08, 8.52, repro,
1996-04-04,-2.68, 1.11, 8.38, 2.73, 2.00, 8.14, repro,
1996-04-05,-4.13, 1.69, 1.82, 2.96, 2.13, 8.71, repro,
1996-04-06,-2.31, -0.13, 11.69, 2.88, 2.14, 8.62, repro,
1996-04-07,-2.71, -0.02, 12.97, 2.84, 2.06, 8.42, repro,
1996-04-08,-1.06, -0.49, 10.68, 2.83, 2.06, 8.30, repro,
1996-04-09,-3.54, 0.16, 12.84, 3.02, 2.15, 8.80, repro,
1996-04-10,0.14, -0.40, 15.93, 2.84, 2.09, 8.45, repro,
1996-04-11,-0.21, -1.43, 7.16, 2.96, 2.14, 8.76, repro,
1996-04-12,-3.99, -0.56, 17.42, 2.99, 2.18, 9.02, repro,
1996-04-13,-1.42, -1.61, 7.97, 2.72, 2.00, 8.08, repro,
1996-04-14,-2.72, 1.50, 12.09, 3.04, 2.28, 11.61, repro,
1996-04-15,-1.88, 0.49, 9.18, 3.04, 2.21, 9.11, repro,
1996-04-16,-3.77, 0.47, 17.82, 2.84, 2.08, 8.46, repro,
1996-04-17,-3.64, -0.13, 18.78, 2.84, 2.09, 8.65, repro,
1996-04-18,-4.43, -1.15, 18.98, 3.37, 2.54, 14.46, repro,
1996-04-19,0.16, -1.68, 9.40, 3.38, 2.40, 10.29, repro,
1996-04-20,-1.18, -0.95, 10.06, 2.88, 2.10, 8.53, repro,
1996-04-21,-1.96, -0.85, 12.44, 2.96, 2.14, 8.72, repro,
1996-04-22,-1.35, -0.17, 10.67, 2.99, 2.16, 9.51, repro,
1996-04-23,-6.63, -0.28, 7.58, 2.78, 2.03, 8.27, repro,
1996-04-24,-2.04, -1.10, 21.87, 2.68, 1.96, 8.08, repro,
1996-04-25,0.13, -2.07, 14.42, 2.77, 2.02, 8.49, repro,
1996-04-26,0.83, -2.22, 23.01, 2.74, 1.96, 8.44, repro,
1996-04-27,-2.04, -2.80, 7.06, 2.70, 1.95, 8.26, repro,
1996-04-28,-1.47, -0.67, 2.90, 2.76, 2.01, 8.26, repro,
1996-04-29,-1.97, -0.31, 4.80, 2.86, 2.06, 8.54, repro,
1996-04-30,-1.37, -3.61, 4.66, 2.81, 2.04, 8.40, repro,
1996-05-01,0.12, -0.75, 1.85, 2.92, 2.12, 8.72, repro,
1996-05-02,-1.59, -1.09, 12.01, 2.75, 1.97, 8.34, repro,
1996-05-03,0.89, -1.67, 7.17, 2.98, 2.10, 9.02, repro,
1996-05-04,-0.21, -1.48, 3.62, 2.87, 2.13, 8.86, repro,
1996-05-05,-0.03, -2.01, 3.52, 2.80, 2.06, 8.49, repro,
1996-05-06,-0.47, -1.03, 8.15, 2.63, 1.91, 8.04, repro,
1996-05-07,-0.90, -1.17, 2.71, 2.82, 2.04, 8.43, repro,
1996-05-08,0.73, -0.88, 3.56, 2.84, 2.03, 8.42, repro,
1996-05-09,0.28, -0.50, 5.16, 2.70, 1.98, 8.16, repro,
1996-05-10,0.36, 0.41, 7.22, 3.02, 2.21, 9.34, repro,
1996-05-11,1.83, -1.97, -1.12, 2.80, 2.06, 8.56, repro,
1996-05-12,0.18, 0.20, 3.43, 2.90, 2.16, 8.80, repro,
1996-05-13,1.06, -0.25, 11.75, 2.88, 2.14, 9.06, repro,
1996-05-14,1.12, 0.18, 11.87, 2.97, 2.15, 8.75, repro,
1996-05-15,1.00, -0.10, 13.22, 2.90, 2.11, 8.67, repro,
1996-05-16,0.85, -0.51, 7.24, 2.73, 2.04, 8.49, repro,
1996-05-17,-1.24, -0.28, 19.65, 2.82, 2.09, 8.74, repro,
1996-05-18,0.73, 0.26, 10.98, 2.84, 2.13, 8.82, repro,
1996-05-19,1.10, -2.70, 16.46, 2.79, 2.05, 8.42, repro,
1996-05-20,-0.11, -0.80, 14.30, 2.72, 2.05, 8.54, repro,
1996-05-21,-0.39, -0.07, 10.97, 2.99, 2.21, 9.26, repro,
1996-05-22,0.27, -1.53, 11.30, 2.88, 2.08, 8.76, repro,
1996-05-23,-0.04, -1.09, 6.62, 2.87, 2.03, 8.70, repro,
1996-05-24,0.44, -1.64, -3.13, 3.04, 2.20, 9.30, repro,
1996-05-25,4.09, -0.19, -4.36, 2.99, 2.16, 8.97, repro,
1996-05-26,3.77, -2.56, -5.71, 2.93, 2.18, 9.10, repro,
1996-05-27,2.21, -1.94, 6.29, 2.88, 2.12, 8.95, repro,
1996-05-28,2.69, -0.86, 2.72, 2.76, 2.02, 8.46, repro,
1996-05-29,2.01, -0.75, 8.43, 2.96, 2.19, 9.32, repro,
1996-05-30,1.22, -2.08, 7.17, 2.88, 2.14, 8.90, repro,
1996-05-31,2.13, -2.31, -4.08, 2.84, 2.10, 8.88, repro,
1996-06-01,0.04, -1.58, 7.09, 2.79, 2.06, 8.70, repro,
1996-06-02,3.00, -1.97, -7.35, 2.77, 2.02, 8.58, repro,
1996-06-03,0.04, -1.45, 6.00, 2.88, 2.10, 9.01, repro,
1996-06-04,1.48, -1.57, 16.11, 2.80, 2.07, 8.86, repro,
1996-06-05,3.24, -2.65, -2.53, 2.93, 2.20, 9.57, repro,
1996-06-06,0.79, 0.22, 3.92, 2.77, 2.04, 8.76, repro,
1996-06-07,-2.38, -0.76, 14.13, 2.90, 2.08, 9.09, repro,
1996-06-08,1.56, -2.33, 10.92, 2.77, 2.02, 8.74, repro,
1996-06-09,1.77, -1.26, 9.02, 2.73, 2.02, 8.68, repro,
1996-06-10,1.84, -0.90, 3.06, 2.91, 2.16, 9.44, repro,
1996-06-11,0.58, -0.07, 2.04, 2.81, 2.11, 9.15, repro,
1996-06-12,0.35, -1.28, 7.93, 2.81, 2.09, 8.95, repro,
1996-06-13,-0.09, -2.00, 12.13, 2.84, 2.07, 8.79, repro,
1996-06-14,1.82, -1.22, 2.16, 2.78, 2.04, 8.67, repro,
1996-06-15,2.13, -1.57, 2.28, 2.76, 2.03, 8.69, repro,
1996-06-16,1.13, -2.48, -6.93, 2.77, 2.02, 8.70, repro,
1996-06-17,1.65, -1.56, 2.99, 4.07, 3.23, 13.59, repro,
1996-06-18,-0.07, -1.71, 11.30, 2.87, 2.09, 9.06, repro,
1996-06-19,0.09, -2.29, 9.25, 2.83, 2.03, 8.88, repro,
1996-06-20,1.61, -1.21, 2.99, 2.83, 2.02, 8.74, repro,
1996-06-21,4.77, -2.05, 6.51, 2.95, 2.13, 9.29, repro,
1996-06-22,0.38, -3.61, 3.23, 2.66, 1.92, 8.60, repro,
1996-06-23,0.99, -1.60, 8.75, 2.80, 2.06, 8.87, repro,
1996-06-24,0.25, -1.25, 9.96, 2.75, 1.99, 8.67, repro,
1996-06-25,1.28, -2.62, 11.27, 2.84, 2.06, 8.87, repro,
1996-06-26,0.63, -1.86, 20.52, 2.84, 2.07, 8.95, repro,
1996-06-27,2.14, -2.58, 12.19, 2.92, 2.07, 9.12, repro,
1996-06-28,-0.01, -0.73, 25.99, 4.50, 3.54, 16.88, repro,
1996-06-29,0.82, -1.15, 1.94, 2.83, 2.06, 8.95, repro,
1996-06-30,2.52, -1.61, 7.96, 2.97, 2.08, 9.25, repro,
1996-07-01,1.54, -1.53, -3.42, 2.71, 1.98, 8.64, repro,
1996-07-02,0.27, -0.36, 15.43, 2.75, 2.03, 8.96, repro,
1996-07-03,0.29, -1.97, -8.39, 2.96, 2.08, 9.34, repro,
1996-07-04,-0.17, -3.78, 10.98, 2.83, 2.05, 8.95, repro,
1996-07-05,0.71, -2.91, 4.34, 2.74, 2.00, 8.68, repro,
1996-07-06,0.83, -1.87, 9.37, 2.83, 2.06, 8.96, repro,
1996-07-07,1.10, -1.71, 10.18, 2.83, 2.09, 9.07, repro,
1996-07-08,1.61, -2.96, 8.59, 2.83, 2.07, 9.05, repro,
1996-07-09,2.81, -3.00, 4.26, 2.82, 2.07, 8.99, repro,
1996-07-10,1.07, -2.69, 3.03, 2.78, 2.06, 8.94, repro,
1996-07-11,1.66, -1.71, 3.78, 2.74, 1.99, 8.70, repro,
1996-07-12,1.05, -2.38, 2.51, 2.88, 2.09, 8.95, repro,
1996-07-13,2.11, -2.40, 10.89, 2.76, 2.03, 8.83, repro,
1996-07-14,1.38, -2.51, 16.13, 2.87, 2.06, 8.98, repro,
1996-07-15,2.76, -2.25, 15.30, 2.77, 2.01, 8.86, repro,
1996-07-16,0.17, -1.19, 20.20, 2.87, 2.07, 9.19, repro,
1996-07-17,-1.84, -1.71, 18.53, 2.85, 2.14, 9.15, repro,
1996-07-18,0.12, -1.54, 17.14, 2.69, 1.98, 8.63, repro,
1996-07-19,0.32, -1.71, 12.67, 2.78, 2.04, 8.94, repro,
1996-07-20,0.13, -4.81, 2.77, 2.66, 1.97, 8.57, repro,
1996-07-21,2.17, -2.53, 7.30, 2.69, 2.01, 8.63, repro,
1996-07-22,0.64, -3.75, 1.15, 2.71, 2.03, 8.84, repro,
1996-07-23,1.03, -5.22, -8.24, 2.53, 1.81, 8.30, repro,
1996-07-24,0.37, -4.45, 3.54, 2.65, 1.86, 8.66, repro,
1996-07-25,-1.02, -5.38, 3.32, 2.67, 1.89, 8.53, repro,
1996-07-26,-1.89, -4.31, -0.59, 2.67, 1.94, 8.74, repro,
1996-07-27,0.96, -5.63, 5.11, 2.54, 1.85, 8.38, repro,
1996-07-28,0.45, -3.18, 2.15, 2.61, 1.90, 8.55, repro,
1996-07-29,-4.21, -3.59, 4.13, 2.57, 1.84, 8.46, repro,
1996-07-30,-4.84, -2.54, 15.19, 2.57, 1.87, 8.53, repro,
1996-07-31,0.42, -3.65, 5.07, 2.57, 1.89, 8.66, repro,
1996-08-01,-2.66, -3.61, 14.34, 2.67, 1.98, 8.81, repro,
1996-08-02,-3.78, -4.19, 18.97, 2.60, 1.85, 8.30, repro,
1996-08-03,-3.36, -5.03, 8.91, 2.61, 1.90, 8.32, repro,
1996-08-04,-2.76, -4.98, 18.73, 2.62, 1.90, 8.38, repro,
1996-08-05,-3.48, -6.16, 14.88, 2.67, 1.96, 8.86, repro,
1996-08-06,-1.62, -5.37, 6.45, 2.85, 2.08, 9.30, repro,
1996-08-07,-2.24, -3.04, 6.68, 2.59, 1.91, 8.41, repro,
1996-08-08,-3.04, -3.54, 4.78, 2.61, 1.89, 8.45, repro,
1996-08-09,-1.01, -2.60, 8.50, 2.72, 1.98, 8.73, repro,
1996-08-10,-0.69, -2.31, 15.39, 2.80, 2.06, 8.67, repro,
1996-08-11,0.59, -1.99, 7.16, 2.84, 2.14, 9.13, repro,
1996-08-12,0.93, -3.38, 8.41, 2.74, 2.01, 8.74, repro,
1996-08-13,-0.36, -1.49, 13.12, 2.73, 2.02, 8.74, repro,
1996-08-14,-3.37, -2.30, 10.34, 2.77, 2.00, 8.73, repro,
1996-08-15,-0.89, -2.46, 13.55, 2.76, 2.00, 8.94, repro,
1996-08-16,-2.68, -2.93, 24.86, 2.72, 2.01, 8.84, repro,
1996-08-17,0.30, -3.75, 5.03, 2.82, 2.04, 9.09, repro,
1996-08-18,0.74, -2.10, 10.68, 2.83, 1.99, 8.99, repro,
1996-08-19,-2.41, -4.74, 13.91, 2.93, 2.00, 8.89, repro,
1996-08-20,-1.95, -2.40, 19.87, 2.84, 2.02, 8.85, repro,
1996-08-21,-2.63, -3.99, 8.80, 2.88, 2.01, 8.92, repro,
1996-08-22,-0.63, -3.29, 7.20, 4.22, 2.99, 13.00, repro,
1996-08-23,-1.44, -2.51, 14.62, 2.81, 1.97, 8.63, repro,
1996-08-24,0.07, -2.06, 3.66, 3.04, 2.07, 9.33, repro,
1996-08-25,-0.27, -2.71, 16.22, 2.83, 2.08, 8.98, repro,
1996-08-26,-1.81, -2.14, 17.80, 2.85, 2.05, 8.99, repro,
1996-08-27,-1.87, -3.32, 17.21, 5.32, 3.74, 18.09, repro,
1996-08-28,-2.54, -3.16, 12.50, 2.82, 2.00, 8.93, repro,
1996-08-29,0.38, -2.95, 3.01, 2.96, 2.12, 9.43, repro,
1996-08-30,-3.98, -1.28, 19.41, 4.50, 3.36, 14.71, repro,
1996-08-31,-2.01, -5.53, 4.95, 2.70, 1.93, 8.44, repro,
1996-09-01,-0.04, -4.39, 9.88, 2.78, 1.99, 8.79, repro,
1996-09-02,-0.25, -2.79, 7.75, 2.83, 2.00, 8.85, repro,
1996-09-03,-0.99, -4.10, 8.28, 2.80, 1.93, 8.75, repro,
1996-09-04,-0.22, -4.01, 14.47, 2.83, 1.99, 8.84, repro,
1996-09-05,1.03, -2.80, 6.26, 2.77, 2.02, 8.83, repro,
1996-09-06,-1.33, -1.86, 6.45, 2.89, 2.11, 9.39, repro,
1996-09-07,1.83, -1.17, 3.53, 2.99, 2.14, 9.62, repro,
1996-09-08,-0.81, -2.08, 16.55, 2.79, 2.02, 8.92, repro,
1996-09-09,-0.75, -2.50, 9.36, 2.92, 2.15, 9.20, repro,
1996-09-10,-0.50, -3.76, 4.24, 2.91, 2.11, 9.24, repro,
1996-09-11,-1.29, -2.89, 8.48, 2.91, 2.16, 9.48, repro,
1996-09-12,-1.54, -3.18, 11.91, 2.86, 2.08, 9.08, repro,
1996-09-13,-0.72, -1.28, 18.58, 2.76, 2.00, 8.76, repro,
1996-09-14,-3.79, -3.89, 20.47, 2.64, 1.89, 8.41, repro,
1996-09-15,-2.43, -3.58, 17.33, 2.84, 2.01, 8.79, repro,
1996-09-16,-0.31, -4.87, 13.66, 2.77, 2.11, 9.03, repro,
1996-09-17,-1.30, -4.00, 5.96, 2.89, 2.07, 9.09, repro,
1996-09-18,1.00, -1.42, 5.57, 2.83, 2.05, 8.87, repro,
1996-09-19,-1.68, -3.46, 3.59, 2.87, 2.02, 9.15, repro,
1996-09-20,-0.97, -3.24, 5.45, 2.78, 2.02, 8.79, repro,
1996-09-21,-2.62, -4.04, 5.86, 2.76, 2.00, 9.03, repro,
1996-09-22,-1.55, -3.46, 8.06, 2.68, 1.97, 8.38, repro,
1996-09-23,-0.82, -2.64, 8.28, 2.73, 2.02, 8.85, repro,
1996-09-24,0.70, -4.63, 4.52, 2.86, 2.02, 8.68, repro,
1996-09-25,-0.30, -4.25, 3.84, 2.55, 1.81, 8.04, repro,
1996-09-26,-2.68, -3.10, 10.30, 2.63, 1.88, 8.36, repro,
1996-09-27,-2.79, -3.46, 11.64, 2.56, 1.87, 8.40, repro,
1996-09-28,-1.77, -2.68, -3.93, 2.64, 1.86, 8.18, repro,
1996-09-29,1.54, -0.47, 18.53, 2.67, 1.93, 8.22, repro,
1996-09-30,-0.10, -3.06, 26.45, 2.69, 1.95, 8.41, repro,
1996-10-01,0.69, -4.14, 16.84, 2.91, 2.14, 9.05, repro,
1996-10-02,-0.05, -2.69, 9.00, 2.74, 1.94, 8.42, repro,
1996-10-03,1.52, -3.53, 11.48, 2.65, 1.97, 8.41, repro,
1996-10-04,2.49, -0.47, 16.54, 2.75, 2.03, 8.85, repro,
1996-10-05,-1.31, -4.36, 9.76, 2.69, 1.94, 8.44, repro,
1996-10-06,0.31, -2.24, 11.50, 2.73, 1.96, 8.37, repro,
1996-10-07,-1.14, -0.76, 22.11, 2.60, 1.91, 8.28, repro,
1996-10-08,0.18, -3.68, 10.42, 2.67, 1.92, 8.32, repro,
1996-10-09,-1.24, -3.37, 13.92, 2.82, 2.05, 8.83, repro,
1996-10-10,0.83, -2.64, 19.60, 2.65, 1.92, 8.19, repro,
1996-10-11,-0.93, -2.72, 25.25, 2.65, 1.92, 8.25, repro,
1996-10-12,-1.29, -4.81, 10.35, 2.63, 1.91, 8.17, repro,
1996-10-13,-1.21, -1.13, 11.84, 2.67, 1.94, 8.40, repro,
1996-10-14,0.16, -2.51, 11.12, 2.64, 1.95, 8.37, repro,
1996-10-15,-2.16, -3.24, 27.99, 2.84, 2.08, 8.91, repro,
1996-10-16,1.31, -4.24, 8.11, 2.81, 2.08, 9.06, repro,
1996-10-17,0.04, -2.39, 5.88, 2.66, 1.96, 8.49, repro,
1996-10-18,-4.65, -3.24, 15.74, 2.47, 1.81, 8.12, repro,
1996-10-19,-1.93, -3.34, 21.39, 2.61, 1.93, 8.38, repro,
1996-10-20,-2.24, -4.21, 3.78, 2.43, 1.74, 7.80, repro,
1996-10-21,-1.93, -2.32, 16.63, 2.65, 1.93, 8.31, repro,
1996-10-22,-1.49, -2.97, 18.79, 2.68, 1.95, 8.50, repro,
1996-10-23,-0.93, -4.20, 15.31, 2.60, 1.89, 8.24, repro,
1996-10-24,-3.57, -2.97, 25.78, 2.49, 1.79, 8.05, repro,
1996-10-25,-1.76, -3.64, 24.04, 2.60, 1.87, 8.14, repro,
1996-10-26,-0.87, -3.49, 2.51, 2.76, 2.06, 8.86, repro,
1996-10-27,-1.95, -1.98, 13.85, 2.55, 1.84, 8.05, repro,
1996-10-28,-0.76, -1.85, 6.76, 2.65, 1.87, 8.15, repro,
1996-10-29,-0.03, -3.33, 6.89, 2.61, 1.86, 8.25, repro,
1996-10-30,-0.36, -3.96, -1.63, 2.69, 1.85, 8.33, repro,
1996-10-31,-0.57, -2.88, 7.20, 2.76, 1.91, 8.35, repro,
1996-11-01,-1.21, -2.13, 3.42, 2.79, 2.01, 8.66, repro,
1996-11-02,-2.15, -3.26, 10.78, 2.75, 1.96, 8.50, repro,
1996-11-03,-3.53, -3.08, 11.91, 2.78, 1.95, 8.47, repro,
1996-11-04,-0.96, -3.87, 9.25, 2.91, 1.96, 8.64, repro,
1996-11-05,-1.44, -4.37, 6.55, 3.01, 2.08, 8.97, repro,
1996-11-06,-3.07, -1.85, 15.03, 2.82, 1.96, 8.62, repro,
1996-11-07,-2.50, -0.64, 15.49, 2.97, 2.11, 9.17, repro,
1996-11-08,-4.00, -1.31, -0.24, 2.78, 1.96, 9.06, repro,
1996-11-09,-0.11, -1.21, 15.87, 2.96, 2.11, 9.27, repro,
1996-11-10,1.30, -2.61, 9.49, 2.83, 2.02, 8.56, repro,
1996-11-11,-3.84, -3.32, 1.42, 3.05, 2.08, 9.12, repro,
1996-11-12,-0.77, -1.91, -0.70, 2.72, 1.95, 8.50, repro,
1996-11-13,-1.59, -2.38, 7.20, 2.79, 1.99, 8.51, repro,
1996-11-14,0.17, -2.57, 6.50, 2.84, 2.05, 8.87, repro,
1996-11-15,-2.15, -2.91, 12.67, 2.91, 2.14, 9.03, repro,
1996-11-16,0.36, -2.90, 11.39, 3.10, 2.19, 9.57, repro,
1996-11-17,-1.95, -1.65, 10.40, 3.24, 2.19, 9.57, repro,
1996-11-18,-1.26, 0.14, 24.80, 3.14, 2.13, 9.34, repro,
1996-11-19,1.34, -1.08, 5.89, 3.12, 2.16, 9.41, repro,
1996-11-20,1.58, -3.10, 11.91, 2.98, 2.08, 8.80, repro,
1996-11-21,2.74, -2.27, 1.99, 2.98, 2.03, 8.77, repro,
1996-11-22,1.79, -1.24, 3.03, 2.94, 2.01, 9.19, repro,
1996-11-23,-1.14, -1.17, 5.33, 2.94, 2.02, 8.97, repro,
1996-11-24,-0.33, -2.21, 7.39, 3.20, 2.24, 9.72, repro,
1996-11-25,-3.35, -1.68, -6.77, 3.07, 2.15, 9.16, repro,
1996-11-26,-1.87, -1.38, -6.52, 2.95, 2.07, 8.93, repro,
1996-11-27,-3.09, -1.21, -3.61, 3.21, 2.04, 9.27, repro,
1996-11-28,-2.12, -0.32, 15.82, 3.01, 2.15, 9.52, repro,
1996-11-29,-1.30, -3.31, 14.19, 3.27, 2.38, 10.44, repro,
1996-11-30,-4.54, -2.30, 13.74, 3.09, 1.96, 9.03, repro,
1996-12-01,-11.87, -4.86, 3.34, 3.00, 2.07, 9.03, repro,
1996-12-02,-1.76, -0.85, 4.72, 3.19, 2.14, 9.81, repro,
1996-12-03,-1.51, -1.36, 3.24, 2.85, 2.02, 8.77, repro,
1996-12-04,-0.00, 0.07, 9.02, 3.26, 2.23, 9.85, repro,
1996-12-05,-1.54, -2.51, 22.36, 3.08, 1.97, 8.75, repro,
1996-12-06,-4.55, -1.30, 15.72, 3.38, 2.28, 10.09, repro,
1996-12-07,-1.37, -0.66, 12.88, 3.25, 2.12, 9.34, repro,
1996-12-08,-1.53, -0.63, 22.40, 2.96, 1.99, 8.80, repro,
1996-12-09,-3.94, -5.92, 26.32, 2.93, 1.95, 8.69, repro,
1996-12-10,-0.73, 0.96, 19.83, 3.27, 2.08, 9.31, repro,
1996-12-11,-3.41, -1.31, 21.67, 2.76, 1.94, 8.50, repro,
1996-12-12,-2.40, -2.06, 6.31, 2.76, 1.93, 8.40, repro,
1996-12-13,2.47, -0.48, 3.99, 2.92, 2.09, 8.84, repro,
1996-12-14,-0.41, -1.42, 2.09, 2.65, 1.89, 8.20, repro,
1996-12-15,-1.55, 0.68, 0.53, 2.89, 2.09, 8.97, repro,
1996-12-16,-0.40, -2.38, -3.08, 2.66, 1.86, 8.17, repro,
1996-12-17,-0.89, -0.46, -4.74, 3.10, 2.03, 9.22, repro,
1996-12-18,-0.21, -1.58, -1.81, 2.66, 1.90, 8.30, repro,
1996-12-19,-0.83, 0.08, 0.45, 2.84, 1.97, 8.57, repro,
1996-12-20,-2.78, -1.60, 6.75, 2.76, 1.92, 8.35, repro,
1996-12-21,-0.23, -0.92, 7.53, 2.77, 1.91, 8.30, repro,
1996-12-22,0.79, -0.01, 9.11, 2.68, 1.90, 8.16, repro,
1996-12-23,-1.09, 0.12, 3.38, 2.81, 1.95, 8.41, repro,
1996-12-24,-0.04, 1.29, 1.21, 2.77, 1.91, 8.39, repro,
1996-12-25,-0.62, 3.52, -12.22, 2.67, 1.88, 8.14, repro,
1996-12-26,-0.68, 4.74, -0.75, 2.80, 1.92, 8.40, repro,
1996-12-27,0.25, 2.86, -0.45, 2.79, 1.92, 8.50, repro,
1996-12-28,-1.77, 2.36, 1.35, 2.85, 1.93, 8.46, repro,
1996-12-29,-1.63, -0.55, -4.69, 2.70, 1.92, 8.37, repro,
1996-12-30,-0.43, -0.58, 5.19, 3.07, 2.10, 9.07, repro,
1996-12-31,0.36, 0.30, 15.93, 2.82, 2.00, 8.73, repro,
1997-01-01,-4.86, -2.21, 19.50, 2.83, 2.06, 9.04, repro,
1997-01-02,-1.18, -1.11, 18.13, 2.89, 2.23, 9.68, repro,
1997-01-03,-2.00, -2.85, 6.92, 2.93, 2.16, 9.34, repro,
1997-01-04,-1.28, -1.14, 4.05, 2.75, 2.00, 8.62, repro,
1997-01-05,-3.18, -1.68, -2.68, 2.82, 2.14, 9.28, repro,
1997-01-06,-3.25, -2.17, -2.64, 2.85, 2.03, 8.78, repro,
1997-01-07,-3.94, -0.63, 0.65, 2.80, 2.01, 9.03, repro,
1997-01-08,-3.41, -3.68, -4.07, 2.88, 2.13, 9.39, repro,
1997-01-09,-4.21, -4.69, -10.95, 3.31, 2.47, 11.40, repro,
1997-01-10,-1.73, -3.15, -7.58, 2.63, 1.84, 8.27, repro,
1997-01-11,1.60, -3.34, -3.43, 2.62, 1.87, 8.21, repro,
1997-01-12,0.51, -2.11, -9.88, 2.70, 1.91, 8.58, repro,
1997-01-13,-3.69, -4.38, -2.97, 2.99, 2.29, 9.74, repro,
1997-01-14,-2.47, -3.77, 1.37, 3.02, 2.26, 10.50, repro,
1997-01-15,-1.83, -4.89, -10.29, 2.74, 2.01, 9.03, repro,
1997-01-16,-1.40, -3.57, -9.98, 2.90, 2.13, 9.40, repro,
1997-01-17,-0.78, -2.42, -7.76, 3.00, 2.19, 9.74, repro,
1997-01-18,-2.11, -2.20, -7.26, 2.83, 2.13, 9.30, repro,
1997-01-19,0.23, -3.76, -5.16, 2.73, 2.03, 9.03, repro,
1997-01-20,-1.87, -4.92, -1.42, 2.61, 1.89, 8.53, repro,
1997-01-21,0.87, -3.06, -0.80, 2.63, 1.90, 8.47, repro,
1997-01-22,-0.33, -3.67, 0.01, 3.03, 2.12, 9.69, repro,
1997-01-23,-0.27, -1.82, -5.08, 2.81, 2.04, 9.08, repro,
1997-01-24,-1.09, -1.99, -10.54, 2.84, 2.15, 9.27, repro,
1997-01-25,0.79, -3.56, -2.35, 3.05, 2.19, 9.90, repro,
1997-01-26,-0.29, -2.76, -8.58, 2.65, 1.97, 8.57, repro,
1997-01-27,-0.20, -2.05, -10.25, 3.22, 2.23, 9.73, repro,
1997-01-28,-1.43, -1.15, -7.06, 2.65, 1.91, 8.65, repro,
1997-01-29,-1.93, -2.05, -8.00, 2.63, 1.88, 8.42, repro,
1997-01-30,-1.85, -1.38, -4.08, 2.69, 1.93, 8.38, repro,
1997-01-31,-0.73, -0.35, 6.14, 2.63, 1.89, 8.22, repro,
1997-02-01,-1.72, -1.03, -1.33, 2.80, 1.95, 8.74, repro,
1997-02-24,-3.01, -4.14, -16.58, 2.89, 2.10, 9.13, repro,
1997-02-25,-2.96, -4.70, -12.67, 2.67, 1.88, 8.46, repro,
1997-02-26,-1.91, -4.24, -1.56, 2.74, 1.97, 8.75, repro,
1997-02-27,-3.44, -3.01, 0.85, 3.04, 2.18, 9.57, repro,
1997-02-28,-2.79, -4.34, -6.70, 2.95, 2.09, 9.30, repro,
1997-03-01,-3.49, -3.39, -0.63, 2.98, 2.09, 9.36, repro,
1997-03-02,-4.44, -4.67, 3.43, 2.74, 1.89, 8.61, repro,
1997-03-03,-1.27, -1.11, -0.49, 2.62, 1.88, 8.41, repro,
1997-03-04,-3.24, -4.34, -13.21, 2.87, 2.05, 9.49, repro,
1997-03-05,-2.98, -3.31, -4.90, 2.97, 2.09, 9.43, repro,
1997-03-06,-7.25, 0.52, -1.83, 3.02, 2.06, 9.39, repro,
1997-03-07,-2.76, -3.64, -1.25, 2.57, 1.86, 8.30, repro,
1997-03-08,-4.23, -3.39, 1.16, 2.65, 1.89, 8.34, repro,
1997-03-09,-4.77, -3.12, -0.58, 2.96, 2.06, 9.24, repro,
1997-03-10,-2.53, -3.68, -11.52, 2.79, 2.00, 8.77, repro,
1997-03-11,-3.43, -4.27, -7.63, 3.05, 2.10, 9.78, repro,
1997-03-12,-2.56, -4.60, -12.97, 2.87, 2.00, 9.16, repro,
1997-03-13,-1.91, -3.76, -19.38, 2.72, 2.00, 8.93, repro,
1997-03-14,-4.94, -1.83, -13.75, 2.87, 2.13, 9.52, repro,
1997-03-15,-5.60, -4.55, 3.32, 2.60, 1.83, 8.40, repro,